[[{"header":{"parameterUnit":"m.s-1","parameterCategory":1,"la1":30.2991,"la2":30.254,"lo1":-89.0895,"lo2":-89.0444,"dy":0.0017,"dx":0.0017,"nx":28,"ny":28,"refTime":"2024-05-11T09:00:00:Z","depth":0,"parameterNumber":2,"parameterNumberName":"U-component_of_WINDS"},"data":[0,0,0,0,0,0,0,0,0,0,0,0,0,0,0,0,0,0,0,0,0,0,0,0,0,0,0,0,0,0,0,0,0,0,0,0,0,0,0,0,0,0,0,0,0,0,0,0,0,0,0,0,0,0,0,0,0,0,0.3951,0.3953,0,0.4072,0.4074,0.4075,0.4145,0.4145,0.4146,0.4146,0.4272,0.4275,0.4278,0,0,0,0,0,0,0,0,0,0,0,0,0,0.3783,0.3785,0.3951,0.3953,0.3954,0.4072,0.4074,0.4075,0.4145,0.4145,0.4146,0.4146,0.4271,0.4275,0.4279,0,0,0,0,0,0,0,0,0,0,0,0,0,0.3875,0.3786,0.3951,0.4003,0.4009,0.4072,0.4074,0.4076,0.4145,0.4145,0.4146,0.4146,0.427,0.4274,0.4279,0.43,0,0,0.4293,0.4295,0,0,0,0,0,0,0,0,0.387,0.3881,0.3994,0.4,0.4006,0.4094,0.4061,0.4151,0.4145,0.4093,0.4146,0.4146,0.4213,0.4222,0.4244,0.4306,0.4311,0.4294,0.4297,0.4299,0.43,0,0,0,0,0,0,0,0.3863,0.3876,0.3999,0.3996,0.4003,0.4021,0.4035,0.4078,0.4149,0.4098,0.4103,0.4117,0.4216,0.4239,0.4247,0.4313,0.4294,0.4298,0.4301,0.4302,0.4399,0.4398,0,0,0,0,0,0,0.3848,0.3871,0.3995,0.4003,0.3938,0.4024,0.4039,0.4066,0.4149,0.4162,0.4116,0.4119,0.4231,0.4242,0.4252,0.4282,0.4299,0.4303,0.4306,0.4399,0.4398,0.4398,0,0,0,0,0,0,0.3844,0.3859,0.3991,0.3938,0.3956,0.4026,0.4056,0.4068,0.4091,0.4163,0.4176,0.4126,0.4232,0.4246,0.4287,0.4287,0.4305,0.4309,0.4399,0.4399,0.4398,0.4342,0,0,0,0,0,0,0.3839,0.3857,0.3865,0.3938,0.3959,0.4023,0.4056,0.407,0.4098,0.4104,0.4176,0.4188,0.4233,0.428,0.4292,0.4294,0.4313,0.4399,0.4399,0.4398,0.4344,0.4339,0.4336,0,0,0,0,0,0.3833,0.3844,0.3865,0.388,0.397,0.4023,0.4035,0.4085,0.4098,0.4107,0.4154,0.4186,0.4286,0.4284,0.4298,0.4301,0.44,0.4399,0.4398,0.4346,0.434,0.4336,0,0,0,0,0,0,0.377,0.3855,0.3878,0.3914,0.396,0.4034,0.4047,0.4078,0.4122,0.4126,0.4188,0.4203,0.4239,0.4275,0.4271,0.4326,0.4346,0.4348,0.4301,0.4297,0.4293,0.4283,0.4317,0,0,0,0,0,0.376,0.3795,0.3868,0.3892,0.3914,0.3976,0.4001,0.4036,0.4087,0.4107,0.4157,0.4205,0.4248,0.4274,0.4317,0.435,0.4366,0.4359,0.4355,0.4351,0.4352,0.4372,0.4369,0.4396,0.4396,0.4396,0,0,0.3741,0.3791,0.381,0.3881,0.3921,0.3956,0.3992,0.4028,0.4055,0.4113,0.4155,0.4193,0.4252,0.4289,0.4308,0.432,0.4348,0.435,0.4347,0.435,0.4371,0.4368,0.4366,0.4396,0.4396,0.4396,0,0,0.3723,0.3764,0.3789,0.3829,0.3889,0.393,0.3936,0.4005,0.4032,0.4076,0.412,0.4153,0.4225,0.4265,0.4294,0.4292,0.4323,0.4304,0.4282,0.4301,0.4299,0.4297,0.4296,0.4294,0.4305,0.4305,0.4305,0,0.3691,0.3745,0.3798,0.3831,0.3861,0.3915,0.3941,0.3977,0.4048,0.4068,0.408,0.4171,0.4214,0.4261,0.426,0.4283,0.4292,0.4296,0.4294,0.4293,0.4293,0.4292,0.4291,0.4302,0.4302,0.4303,0.4303,0,0.3702,0.3739,0.3752,0.3818,0.385,0.3879,0.3938,0.3964,0.3996,0.4037,0.408,0.4134,0.4189,0.4203,0.4235,0.4254,0.426,0.4282,0.4304,0.4286,0.4287,0.4287,0.4298,0.4299,0.43,0.4301,0,0,0.3647,0.3743,0.3747,0.3778,0.3848,0.3878,0.391,0.3963,0.3984,0.4032,0.406,0.4119,0.4141,0.4174,0.4212,0.4228,0.4222,0.4249,0.4251,0.4242,0.4246,0.4228,0.4227,0.4244,0.4244,0.4244,0.4241,0,0.3639,0.3698,0.3747,0.3788,0.3823,0.3875,0.3903,0.3949,0.3988,0.4024,0.4067,0.4108,0.4133,0.4154,0.4172,0.4219,0.4224,0.422,0.4271,0.4272,0.4254,0.4227,0.4208,0.4203,0.4242,0.4242,0.4242,0,0.3637,0.3682,0.3725,0.3792,0.3809,0.3833,0.3885,0.3919,0.3973,0.4,0.4037,0.4077,0.4113,0.4132,0.4183,0.4179,0.4204,0.423,0.4231,0.4237,0.4255,0.4232,0.4203,0.4201,0.4243,0.4243,0.4243,0,0.3592,0.3663,0.3699,0.3724,0.3803,0.3818,0.3852,0.3907,0.3935,0.3982,0.4001,0.4051,0.4078,0.4117,0.4168,0.4177,0.4215,0.4237,0.4238,0.4237,0.4243,0.4242,0.4216,0.426,0.426,0.426,0.426,0,0.3577,0.3601,0.3679,0.3701,0.373,0.3788,0.3815,0.3854,0.3902,0.3933,0.3981,0.4009,0.4076,0.4112,0.4153,0.419,0.4202,0.4225,0.4236,0.422,0.4217,0.4236,0.4238,0.426,0.426,0.426,0.426,0,0.3531,0.3584,0.3626,0.3697,0.3716,0.3734,0.3796,0.3819,0.3861,0.3899,0.3911,0.3977,0.4022,0.4077,0.4141,0.4168,0.42,0.4217,0.4181,0.4187,0.4185,0.4184,0.417,0.4171,0.4214,0.4214,0.4213,0,0.3517,0.3537,0.3611,0.3634,0.3666,0.3704,0.3733,0.3791,0.3819,0.3883,0.3898,0.3947,0.3989,0.4059,0.4112,0.4161,0.4178,0.417,0.4186,0.417,0.4177,0.4175,0.4177,0.4165,0.4165,0.4164,0.4164,0,0.3487,0.3512,0.3552,0.3601,0.3635,0.3676,0.372,0.3737,0.3804,0.3834,0.388,0.3912,0.3976,0.4024,0.408,0.4116,0.415,0.4158,0.4161,0.4145,0.4123,0.4134,0.4169,0.4158,0.4159,0.4159,0.4159,0.416,0.3457,0.3477,0.3532,0.3574,0.3613,0.3653,0.3679,0.3723,0.3762,0.3818,0.3851,0.3896,0.395,0.4028,0.4063,0.4099,0.4112,0.4116,0.4117,0.4117,0.4112,0.4118,0.411,0.411,0.411,0.4111,0.4111,0,0.3429,0.3466,0.3505,0.3565,0.3599,0.3628,0.3679,0.3705,0.3744,0.3791,0.3831,0.3885,0.3931,0.3988,0.4039,0.4057,0.4075,0.4069,0.4067,0.4075,0.4098,0.409,0.4054,0.4054,0.4054,0.4054,0.4054,0.4054,0.3418,0.3453,0.3485,0.3541,0.3579,0.3623,0.3649,0.3686,0.3724,0.3781,0.382,0.3857,0.3908,0.3963,0.4007,0.4023,0.4039,0.4028,0.4048,0.4068,0.4073,0.4078,0.4071,0.4031,0.4031,0.4022,0.4022,0.4022]},{"header":{"parameterUnit":"m.s-1","parameterCategory":1,"la1":30.2991,"la2":30.254,"lo1":-89.0895,"lo2":-89.0444,"dy":0.0017,"dx":0.0017,"nx":28,"ny":28,"refTime":"2024-05-11T09:00:00:Z","depth":0,"parameterNumber":3,"parameterNumberName":"V-component_of_WINDS"},"data":[0,0,0,0,0,0,0,0,0,0,0,0,0,0,0,0,0,0,0,0,0,0,0,0,0,0,0,0,0,0,0,0,0,0,0,0,0,0,0,0,0,0,0,0,0,0,0,0,0,0,0,0,0,0,0,0,0,0,-0.2471,-0.2472,0,-0.2557,-0.2558,-0.2558,-0.2651,-0.2652,-0.2653,-0.2655,-0.2741,-0.2742,-0.2743,0,0,0,0,0,0,0,0,0,0,0,0,0,-0.2388,-0.2389,-0.2471,-0.2472,-0.2473,-0.2556,-0.2558,-0.2559,-0.265,-0.2652,-0.2654,-0.2655,-0.274,-0.2741,-0.2743,0,0,0,0,0,0,0,0,0,0,0,0,0,-0.2443,-0.2389,-0.2471,-0.2529,-0.2535,-0.2556,-0.2558,-0.2559,-0.265,-0.2652,-0.2654,-0.2656,-0.274,-0.2741,-0.2743,-0.2713,0,0,-0.2748,-0.2749,0,0,0,0,0,0,0,0,-0.244,-0.2446,-0.2519,-0.2525,-0.2532,-0.2595,-0.256,-0.2611,-0.265,-0.2606,-0.2655,-0.2657,-0.269,-0.2696,-0.2708,-0.2717,-0.2721,-0.2748,-0.2749,-0.275,-0.275,0,0,0,0,0,0,0,-0.2436,-0.2443,-0.2505,-0.252,-0.2528,-0.2551,-0.2561,-0.257,-0.2636,-0.261,-0.2617,-0.2626,-0.2694,-0.2706,-0.2711,-0.2722,-0.2748,-0.2749,-0.275,-0.2751,-0.2717,-0.2715,0,0,0,0,0,0,-0.2424,-0.2439,-0.2502,-0.2507,-0.249,-0.2551,-0.2562,-0.2573,-0.2636,-0.2648,-0.2624,-0.263,-0.2702,-0.2709,-0.2714,-0.2687,-0.275,-0.2751,-0.2752,-0.2719,-0.2716,-0.2714,0,0,0,0,0,0,-0.2421,-0.2428,-0.2499,-0.2475,-0.2486,-0.255,-0.2561,-0.2573,-0.2585,-0.2647,-0.2659,-0.2624,-0.2704,-0.2712,-0.2714,-0.2691,-0.2752,-0.2753,-0.2721,-0.2718,-0.2715,-0.2631,0,0,0,0,0,0,-0.2419,-0.2427,-0.2416,-0.2474,-0.2487,-0.2497,-0.256,-0.2574,-0.2588,-0.2596,-0.265,-0.2661,-0.2706,-0.2711,-0.2716,-0.2695,-0.2755,-0.2723,-0.272,-0.2716,-0.2636,-0.2626,-0.2617,0,0,0,0,0,-0.2415,-0.2387,-0.2415,-0.2422,-0.2474,-0.2495,-0.2502,-0.2555,-0.2586,-0.2576,-0.2616,-0.2659,-0.2693,-0.2711,-0.2716,-0.2696,-0.2725,-0.2721,-0.2717,-0.2641,-0.2628,-0.2617,0,0,0,0,0,0,-0.2323,-0.2396,-0.2427,-0.2417,-0.2449,-0.251,-0.2499,-0.2539,-0.2563,-0.257,-0.2634,-0.2646,-0.2641,-0.2668,-0.2687,-0.2673,-0.2715,-0.2712,-0.2655,-0.2644,-0.2634,-0.2629,-0.2756,0,0,0,0,0,-0.2302,-0.2312,-0.2375,-0.236,-0.2375,-0.2434,-0.2445,-0.2484,-0.2519,-0.2533,-0.2573,-0.2606,-0.2625,-0.2635,-0.2655,-0.264,-0.2655,-0.2629,-0.2619,-0.2611,-0.2608,-0.2606,-0.2597,-0.2701,-0.2701,-0.2701,0,0,-0.2257,-0.2298,-0.2301,-0.2343,-0.2373,-0.2383,-0.2445,-0.2452,-0.2462,-0.2534,-0.254,-0.2571,-0.2612,-0.2606,-0.2606,-0.2629,-0.2583,-0.2605,-0.2598,-0.26,-0.2601,-0.2591,-0.2582,-0.2698,-0.2698,-0.2699,0,0,-0.2183,-0.2214,-0.2207,-0.2236,-0.228,-0.2321,-0.2319,-0.2374,-0.2398,-0.2405,-0.2461,-0.2473,-0.2502,-0.2531,-0.2549,-0.2488,-0.253,-0.2493,-0.2443,-0.244,-0.2432,-0.2425,-0.2407,-0.24,-0.2489,-0.2489,-0.2489,0,-0.2122,-0.2141,-0.2198,-0.2204,-0.2222,-0.2289,-0.2284,-0.2309,-0.2357,-0.2369,-0.2394,-0.2435,-0.2467,-0.2471,-0.2457,-0.2468,-0.247,-0.2488,-0.2429,-0.2422,-0.2417,-0.2401,-0.2393,-0.2484,-0.2485,-0.2485,-0.2486,0,-0.2066,-0.2078,-0.2067,-0.2114,-0.2131,-0.213,-0.2189,-0.2199,-0.2236,-0.2274,-0.2282,-0.2324,-0.2355,-0.2359,-0.2394,-0.2369,-0.2382,-0.2417,-0.2461,-0.2401,-0.2388,-0.2381,-0.2478,-0.248,-0.2481,-0.2482,0,0,-0.1936,-0.2017,-0.2012,-0.2036,-0.2091,-0.2102,-0.2105,-0.2138,-0.2147,-0.2178,-0.2185,-0.2209,-0.2243,-0.2264,-0.2303,-0.23,-0.2255,-0.2336,-0.2338,-0.2323,-0.2235,-0.221,-0.2202,-0.2283,-0.2282,-0.2281,-0.2232,0,-0.1874,-0.1885,-0.1939,-0.1935,-0.1949,-0.2014,-0.2018,-0.2053,-0.2089,-0.2106,-0.2145,-0.2164,-0.2205,-0.2218,-0.2218,-0.226,-0.2239,-0.2264,-0.2292,-0.2292,-0.2282,-0.2194,-0.2168,-0.212,-0.2227,-0.2226,-0.2225,0,-0.1803,-0.1832,-0.183,-0.1889,-0.1897,-0.1899,-0.1935,-0.195,-0.1991,-0.2018,-0.2042,-0.2088,-0.2097,-0.2137,-0.2153,-0.217,-0.2184,-0.2207,-0.2206,-0.2213,-0.2257,-0.2201,-0.2105,-0.2099,-0.2216,-0.2217,-0.2218,0,-0.1712,-0.1751,-0.1756,-0.1774,-0.1841,-0.1842,-0.187,-0.1914,-0.1931,-0.1962,-0.1975,-0.2005,-0.2023,-0.2046,-0.21,-0.2123,-0.2111,-0.2154,-0.2135,-0.2134,-0.2131,-0.2131,-0.2039,-0.2135,-0.2135,-0.2135,-0.2135,0,-0.1639,-0.1637,-0.1717,-0.1721,-0.1721,-0.1782,-0.178,-0.1814,-0.1853,-0.1866,-0.1923,-0.1933,-0.2002,-0.202,-0.2062,-0.2071,-0.2077,-0.21,-0.2112,-0.2097,-0.2095,-0.2109,-0.2115,-0.2134,-0.2134,-0.2134,-0.2135,0,-0.1539,-0.1593,-0.1604,-0.1667,-0.1683,-0.168,-0.1736,-0.1742,-0.1782,-0.1797,-0.1804,-0.1867,-0.1892,-0.1947,-0.1987,-0.2015,-0.2015,-0.2034,-0.2001,-0.2009,-0.1988,-0.1991,-0.1905,-0.1899,-0.1995,-0.1994,-0.1993,0,-0.1491,-0.1491,-0.1555,-0.1568,-0.1594,-0.1613,-0.1632,-0.1692,-0.171,-0.1759,-0.176,-0.1791,-0.1818,-0.1856,-0.1906,-0.1937,-0.1959,-0.1927,-0.1964,-0.1951,-0.1963,-0.1964,-0.1966,-0.1919,-0.1918,-0.1917,-0.1916,0,-0.14,-0.1427,-0.1452,-0.1486,-0.1507,-0.1537,-0.157,-0.1577,-0.1646,-0.1663,-0.169,-0.1711,-0.1754,-0.1784,-0.1824,-0.1854,-0.1897,-0.1904,-0.1902,-0.1888,-0.187,-0.1883,-0.1982,-0.1906,-0.1907,-0.1907,-0.1908,-0.1908,-0.1327,-0.1331,-0.1378,-0.1404,-0.1436,-0.1466,-0.1477,-0.1519,-0.1543,-0.1583,-0.1617,-0.1642,-0.1687,-0.1745,-0.1773,-0.1794,-0.1815,-0.1811,-0.1811,-0.181,-0.1805,-0.1865,-0.1801,-0.1801,-0.1802,-0.1802,-0.1802,0,-0.1242,-0.1276,-0.1299,-0.1345,-0.1366,-0.1405,-0.1445,-0.146,-0.1482,-0.152,-0.1547,-0.158,-0.1611,-0.1663,-0.1699,-0.1706,-0.1727,-0.1714,-0.1715,-0.1722,-0.1782,-0.1782,-0.1696,-0.1696,-0.1696,-0.1696,-0.1696,-0.1696,-0.1201,-0.1212,-0.1245,-0.1273,-0.1307,-0.1333,-0.1352,-0.1381,-0.1413,-0.1448,-0.1474,-0.1508,-0.1553,-0.1593,-0.1623,-0.1638,-0.165,-0.1631,-0.1652,-0.1707,-0.1717,-0.1727,-0.1728,-0.1632,-0.1632,-0.1591,-0.1591,-0.1591]}]]